Morris, IL

7:12 PM CDT on October 20, 2017 (GMT -0500)
Morris

Weather History for KC09 - February, 2013

Change the Weather History Date:

Thursday, February 7, 2013

  Actual Average (KARR) Record (KARR)
Temperature  
Mean Temperature 34 °F -  
Max Temperature 36 °F 32 °F 54 °F (2009)
Min Temperature 32 °F 16 °F -17 °F (2007)
Degree Days  
Heating Degree Days 31    
Moisture  
Dew Point 34 °F    
Average Humidity 98    
Maximum Humidity 100    
Minimum Humidity 85    
Precipitation  
Precipitation 0.26 in - - ()
Sea Level Pressure  
Sea Level Pressure 29.96 in    
Wind  
Wind Speed 7 mph (SE)    
Max Wind Speed 13 mph    
Max Gust Speed 16 mph    
Visibility 3 miles    
Events Rain , Snow    
Averages and records for this station are not official NWS values.
T = Trace of Precipitation, MM = Missing Value Source: NWS Daily Summary

Daily Weather History Graph

Daily Weather History Graph

Search for Another Location

Airport or City:

Trip Planner

Search our weather history database for the weather conditions in past years. The results will help you decide how hot, cold, wet, or windy it might be!

Date:

Astronomy

Feb. 07, 2013 Rise Set
Actual Time 6:58 AM CST 5:17 PM CST
Civil Twilight 6:29 AM CST 5:46 PM CST
Nautical Twilight 5:56 AM CST 6:19 PM CST
Astronomical Twilight 5:24 AM CST 6:51 PM CST
Moon 4:38 AM CST (2/7) 2:41 PM CST (2/7)
Length of Visible Light 11h 17m
Length of Day
10h 19m
Waning Crescent, 9% of the Moon is Illuminated
Feb 7
Waning Crescent
Feb 10
New
Feb 17
First Quarter
Feb 25
Full
Mar 4
Last Quarter

Hourly Weather History & Observations

Time (CST) Temp. Windchill Dew Point Humidity Pressure Visibility Wind Dir Wind Speed Gust Speed Precip Events Conditions
12:15 AM 33.4 °F 24.8 °F 30.6 °F 89% 30.08 in 7.0 mi SSE 11.5 mph - N/A   Clear
12:35 AM 33.8 °F 24.8 °F 30.2 °F 87% 30.08 in 7.0 mi SSE 12.7 mph - N/A   Clear
12:55 AM 34.0 °F 26.0 °F 30.6 °F 87% 30.06 in 7.0 mi SSE 10.4 mph - N/A   Clear
1:15 AM 34.2 °F 26.8 °F 30.2 °F 85% 30.06 in 7.0 mi SSE 9.2 mph - N/A   Clear
1:35 AM 34.0 °F 27.2 °F 30.4 °F 87% 30.07 in 7.0 mi South 8.1 mph - N/A   Clear
1:55 AM 33.8 °F 28.6 °F 30.6 °F 88% 30.09 in 7.0 mi South 5.8 mph - N/A   Scattered Clouds
2:15 AM 34.0 °F - 30.7 °F 88% 30.09 in 7.0 mi Calm Calm - N/A   Overcast
2:35 AM 34.0 °F 29.8 °F 30.7 °F 88% 30.08 in 7.0 mi SSE 4.6 mph - N/A   Overcast
2:55 AM 33.8 °F 29.6 °F 30.7 °F 89% 30.08 in 7.0 mi SSE 4.6 mph - N/A   Overcast
3:15 AM 33.8 °F 30.8 °F 30.9 °F 89% 30.08 in 4.0 mi SE 3.5 mph - N/A Snow Light Snow
3:35 AM 33.4 °F 28.1 °F 31.1 °F 91% 30.08 in 4.0 mi SSE 5.8 mph - N/A Snow Light Snow
3:55 AM 33.4 °F 24.8 °F 31.5 °F 92% 30.06 in 5.0 mi SE 11.5 mph - N/A Rain Light Rain
4:15 AM 33.6 °F 25.6 °F 31.5 °F 92% 30.05 in 4.0 mi SE 10.4 mph - N/A   Overcast
4:35 AM 33.4 °F 27.3 °F 31.6 °F 93% 30.06 in 4.0 mi SE 6.9 mph - N/A Rain Light Rain
4:55 AM 33.4 °F 25.9 °F 32.0 °F 94% 30.05 in 4.0 mi SE 9.2 mph - N/A Rain Light Rain
5:15 AM 33.3 °F 24.6 °F 33.3 °F 100% 30.04 in 4.0 mi SE 11.5 mph - N/A   Overcast
5:35 AM 33.3 °F 24.6 °F 33.3 °F 100% 30.04 in 4.0 mi SE 11.5 mph - N/A Rain Light Rain
5:55 AM 33.4 °F 27.3 °F 33.4 °F 100% 30.04 in 4.0 mi ESE 6.9 mph - N/A   Overcast
6:15 AM 33.8 °F 27.0 °F 33.8 °F 100% 30.03 in 4.0 mi ESE 8.1 mph - N/A Rain Light Rain
6:35 AM 33.8 °F 29.6 °F 33.8 °F 100% 30.04 in 4.0 mi ESE 4.6 mph - N/A   Overcast
6:55 AM 33.8 °F 28.6 °F 33.8 °F 100% 30.04 in 4.0 mi SE 5.8 mph - N/A Rain Light Rain
7:15 AM 33.8 °F 27.7 °F 33.8 °F 100% 30.03 in 3.0 mi SE 6.9 mph - N/A Rain Light Rain
7:35 AM 33.4 °F 27.3 °F 33.4 °F 100% 30.03 in 3.0 mi SE 6.9 mph - N/A Rain Light Rain
7:55 AM 33.4 °F 27.3 °F 33.4 °F 100% 30.02 in 2.0 mi ESE 6.9 mph - N/A   Overcast
8:15 AM 33.8 °F 30.8 °F 33.8 °F 100% 30.02 in 2.0 mi SE 3.5 mph - N/A Rain Light Rain
8:35 AM 33.8 °F 27.7 °F 33.8 °F 100% 30.02 in 2.0 mi SE 6.9 mph - N/A Rain Light Rain
8:55 AM 33.8 °F 27.7 °F 33.8 °F 100% 30.01 in 2.0 mi SE 6.9 mph - N/A Rain Light Rain
9:15 AM 34.0 °F 29.8 °F 34.0 °F 100% 30.00 in 1.5 mi SE 4.6 mph - N/A Rain Light Rain
9:35 AM 34.3 °F 28.4 °F 34.3 °F 100% 30.00 in 1.8 mi SE 6.9 mph - N/A Rain Light Rain
9:55 AM 35.6 °F 29.9 °F 35.6 °F 100% 29.99 in 1.8 mi SE 6.9 mph - N/A Rain Light Rain
10:15 AM 34.7 °F 29.6 °F 34.7 °F 100% 29.99 in 1.2 mi SE 5.8 mph - 0.01 in Rain Rain
10:35 AM 35.2 °F 28.8 °F 35.2 °F 100% 29.98 in 1.8 mi SE 8.1 mph - 0.01 in Rain Light Rain
10:55 AM 35.6 °F 29.9 °F 35.6 °F 100% 29.98 in 1.8 mi SE 6.9 mph - 0.01 in Rain Light Rain
11:15 AM 35.8 °F 30.9 °F 35.8 °F 100% 29.98 in 2.0 mi SE 5.8 mph - N/A Rain Light Rain
11:35 AM 36.0 °F 32.1 °F 36.0 °F 100% 29.96 in 1.8 mi ESE 4.6 mph - 0.01 in Rain Light Rain
11:55 AM 36.0 °F 31.1 °F 36.0 °F 100% 29.95 in 1.5 mi ESE 5.8 mph - 0.01 in Rain Light Rain
12:15 PM 36.1 °F 31.4 °F 36.1 °F 100% 29.94 in 1.8 mi SE 5.8 mph - N/A Rain Rain
12:35 PM 36.3 °F 32.5 °F 36.3 °F 100% 29.92 in 1.5 mi ESE 4.6 mph - 0.01 in Rain Rain
12:55 PM 36.5 °F 31.8 °F 36.5 °F 100% 29.91 in 1.5 mi ESE 5.8 mph - 0.02 in Rain Rain
1:15 PM 36.0 °F 31.1 °F 36.0 °F 100% 29.90 in 1.5 mi ESE 5.8 mph - 0.01 in Rain Rain
1:35 PM 36.5 °F - 36.5 °F 100% 29.89 in 1.0 mi Calm Calm - 0.03 in Rain Rain
1:55 PM 36.5 °F - 36.5 °F 100% 29.88 in 1.0 mi Calm Calm - 0.05 in Rain Rain
2:15 PM 36.0 °F - 36.0 °F 100% 29.88 in 0.8 mi Calm Calm - N/A Rain Rain
2:35 PM 36.0 °F - 36.0 °F 100% 29.87 in 0.8 mi Calm Calm - 0.02 in Rain Rain
2:55 PM 35.8 °F - 35.8 °F 100% 29.86 in 0.5 mi Calm Calm - 0.04 in Rain Rain
3:15 PM 35.6 °F - 35.6 °F 100% 29.86 in 0.5 mi Calm Calm - 0.02 in Rain Rain
3:35 PM 35.6 °F - 35.6 °F 100% 29.85 in 0.5 mi Calm Calm - 0.04 in Rain Rain
3:55 PM 35.6 °F - 35.6 °F 100% 29.84 in 0.5 mi Calm Calm - 0.06 in Rain Rain
4:15 PM 35.2 °F - 35.2 °F 100% 29.84 in 0.5 mi Calm Calm - 0.02 in Rain Rain
4:35 PM 35.1 °F 32.2 °F 35.1 °F 100% 29.85 in 0.5 mi North 3.5 mph - 0.04 in Rain Rain
4:55 PM 34.9 °F - 34.9 °F 100% 29.85 in 1.2 mi Calm Calm - 0.05 in Rain Rain
5:15 PM 34.7 °F - 34.7 °F 100% 29.85 in 1.2 mi Calm Calm - 0.01 in Rain Rain
5:35 PM 34.2 °F 31.2 °F 34.2 °F 100% 29.85 in 1.2 mi North 3.5 mph - 0.02 in Rain Light Rain
5:55 PM 34.2 °F 31.2 °F 34.2 °F 100% 29.86 in 1.5 mi NNW 3.5 mph - 0.02 in Rain Light Rain
6:15 PM 34.2 °F - 34.2 °F 100% 29.86 in 1.5 mi Calm Calm - N/A   Light Drizzle
6:35 PM 33.8 °F - 33.8 °F 100% 29.87 in 1.5 mi Calm Calm - N/A Rain Light Rain
6:55 PM 33.8 °F - 33.8 °F 100% 29.88 in 1.5 mi Calm Calm - N/A Rain Light Rain
7:15 PM 33.3 °F 30.2 °F 33.3 °F 100% 29.88 in 1.2 mi NW 3.5 mph - N/A Snow Light Snow
7:35 PM 33.3 °F 30.2 °F 33.3 °F 100% 29.88 in 1.2 mi NW 3.5 mph - N/A Snow Light Snow
7:55 PM 33.3 °F 30.2 °F 33.3 °F 100% 29.88 in 1.5 mi NW 3.5 mph - N/A Snow Light Snow
8:15 PM 33.3 °F 27.1 °F 33.3 °F 100% 29.89 in 1.5 mi NW 6.9 mph - N/A Snow Light Snow
8:35 PM 33.4 °F 27.3 °F 33.4 °F 100% 29.89 in 2.0 mi NW 6.9 mph - N/A Snow Light Snow
8:55 PM 33.4 °F 25.9 °F 33.4 °F 100% 29.90 in 3.0 mi NW 9.2 mph - N/A Snow Light Snow
9:15 PM 33.6 °F 24.6 °F 33.6 °F 100% 29.91 in 5.0 mi NW 12.7 mph - N/A Snow Light Snow
9:35 PM 33.8 °F 25.8 °F 33.8 °F 100% 29.91 in 5.0 mi NW 10.4 mph - N/A Snow Light Snow
9:55 PM 33.8 °F 25.8 °F 33.8 °F 100% 29.92 in 5.0 mi NW 10.4 mph - N/A Snow Light Snow
10:15 PM 33.8 °F 25.8 °F 33.8 °F 100% 29.93 in 5.0 mi NNW 10.4 mph 16.1 mph N/A Snow Light Snow
10:35 PM 33.8 °F 25.8 °F 33.8 °F 100% 29.93 in 5.0 mi NNW 10.4 mph - N/A Snow Light Snow
10:55 PM 33.1 °F 24.9 °F 33.1 °F 100% 29.93 in 3.0 mi NNW 10.4 mph 16.1 mph N/A Snow Light Snow
11:15 PM 33.1 °F 25.5 °F 33.1 °F 100% 29.94 in 1.8 mi NNW 9.2 mph - N/A Snow Light Snow
11:35 PM 32.9 °F 25.9 °F 32.9 °F 100% 29.95 in 3.0 mi NNW 8.1 mph - N/A Snow Light Snow
11:55 PM 32.9 °F 25.3 °F 32.9 °F 100% 29.95 in 7.0 mi NNW 9.2 mph - N/A   Overcast